[[{"header":{"parameterUnit":"m.s-1","parameterCategory":1,"la1":30.2991,"la2":30.254,"lo1":-89.0895,"lo2":-89.0444,"dy":0.0017,"dx":0.0017,"nx":28,"ny":28,"refTime":"2025-12-16T03:00:00:Z","depth":0,"parameterNumber":2,"parameterNumberName":"U-component_of_WINDS"},"data":[0,0,0,0,0,0,0,0,0,0,0,0,0,0,0,0,0,0,0,0,0,0,0,0,0,0,0,0,0,0,0,0,0,0,0,0,0,0,0,0,0,0,0,0,0,0,0,0,0,0,0,0,0,0,0,0,0,0,-4.0674,-4.0675,0,-4.0735,-4.0735,-4.0736,-4.0616,-4.0612,-4.0608,-4.0604,-4.067,-4.0676,-4.0681,0,0,0,0,0,0,0,0,0,0,0,0,0,-4.0459,-4.0464,-4.0674,-4.0675,-4.0676,-4.0735,-4.0735,-4.0736,-4.0616,-4.0612,-4.0607,-4.0602,-4.0669,-4.0675,-4.0682,0,0,0,0,0,0,0,0,0,0,0,0,0,-4.054,-4.0466,-4.0674,-4.0623,-4.0619,-4.0734,-4.0735,-4.0736,-4.0617,-4.0611,-4.0605,-4.06,-4.0666,-4.0674,-4.0682,-4.0852,0,0,-4.0707,-4.0711,0,0,0,0,0,0,0,0,-4.0535,-4.0548,-4.063,-4.0627,-4.0622,-4.0661,-4.0684,-4.0775,-4.0619,-4.0618,-4.0604,-4.0597,-4.0672,-4.068,-4.0704,-4.0855,-4.0858,-4.0708,-4.0713,-4.0717,-4.0719,0,0,0,0,0,0,0,-4.053,-4.0545,-4.0698,-4.0631,-4.0627,-4.0598,-4.0603,-4.0701,-4.0678,-4.0618,-4.0609,-4.0618,-4.0669,-4.0697,-4.0705,-4.0859,-4.0708,-4.0715,-4.072,-4.0723,-4.1154,-4.116,0,0,0,0,0,0,-4.053,-4.0541,-4.0696,-4.07,-4.0563,-4.0607,-4.0612,-4.0655,-4.0677,-4.0674,-4.0623,-4.0612,-4.0686,-4.0696,-4.0707,-4.0908,-4.0717,-4.0724,-4.0729,-4.1147,-4.1155,-4.1162,0,0,0,0,0,0,-4.0526,-4.0545,-4.0694,-4.0618,-4.0635,-4.0617,-4.0666,-4.0659,-4.0686,-4.068,-4.0676,-4.0655,-4.0681,-4.0695,-4.0817,-4.0909,-4.0728,-4.0735,-4.1139,-4.1149,-4.1158,-4.1312,0,0,0,0,0,0,-4.052,-4.0544,-4.0608,-4.062,-4.0639,-4.0802,-4.0671,-4.0665,-4.07,-4.0687,-4.0709,-4.0707,-4.0678,-4.0805,-4.0825,-4.0917,-4.0742,-4.1131,-4.1144,-4.1155,-4.1299,-4.1326,-4.1349,0,0,0,0,0,-4.0513,-4.0649,-4.0611,-4.0631,-4.0718,-4.0807,-4.0818,-4.0781,-4.0708,-4.0773,-4.0769,-4.0706,-4.0895,-4.0819,-4.084,-4.0936,-4.1125,-4.114,-4.1154,-4.1288,-4.1321,-4.1349,0,0,0,0,0,0,-4.0649,-4.065,-4.0608,-4.0752,-4.078,-4.0787,-4.0867,-4.0817,-4.0868,-4.0853,-4.0805,-4.0811,-4.0943,-4.0951,-4.0866,-4.1102,-4.0998,-4.1018,-4.1092,-4.1124,-4.1148,-4.1145,-4.0749,0,0,0,0,0,-4.0695,-4.0767,-4.0764,-4.0891,-4.0907,-4.0885,-4.0923,-4.0891,-4.0919,-4.0931,-4.0936,-4.0967,-4.1034,-4.1079,-4.1139,-4.1299,-4.1303,-4.1375,-4.14,-4.1421,-4.144,-4.1527,-4.156,-4.121,-4.121,-4.121,0,0,-4.0792,-4.0802,-4.085,-4.0919,-4.0937,-4.1014,-4.0896,-4.0982,-4.1039,-4.0945,-4.106,-4.1065,-4.1096,-4.1239,-4.1301,-4.1249,-4.1537,-4.144,-4.1456,-4.1464,-4.1545,-4.1579,-4.1608,-4.122,-4.1218,-4.1217,0,0,-4.1009,-4.1022,-4.1131,-4.1151,-4.118,-4.1165,-4.1191,-4.1205,-4.1205,-4.1319,-4.125,-4.1318,-4.1433,-4.1459,-4.1487,-4.1715,-4.1661,-4.1736,-4.1869,-4.1954,-4.1982,-4.2006,-4.209,-4.212,-4.1753,-4.1754,-4.1754,0,-4.1127,-4.1239,-4.1193,-4.1284,-4.1318,-4.1234,-4.1345,-4.1367,-4.1416,-4.1441,-4.1382,-4.1525,-4.154,-4.1688,-4.1744,-4.1768,-4.1799,-4.1734,-4.1981,-4.2005,-4.2027,-4.2107,-4.2138,-4.1763,-4.1762,-4.1761,-4.176,0,-4.1383,-4.1462,-4.1546,-4.1594,-4.1636,-4.1737,-4.1708,-4.1757,-4.1722,-4.1713,-4.1832,-4.1847,-4.191,-4.1942,-4.1909,-4.2087,-4.2054,-4.1989,-4.1884,-4.2071,-4.2145,-4.2174,-4.1776,-4.1773,-4.177,-4.1768,0,0,-4.1689,-4.171,-4.1742,-4.1763,-4.1789,-4.185,-4.1948,-4.2008,-4.2052,-4.2088,-4.217,-4.2269,-4.221,-4.2242,-4.2211,-4.2286,-4.2468,-4.2211,-4.2211,-4.2261,-4.2668,-4.2719,-4.2755,-4.2431,-4.2437,-4.2441,-4.2666,0,-4.1906,-4.2072,-4.2034,-4.22,-4.2273,-4.2195,-4.228,-4.2307,-4.2301,-4.2364,-4.2357,-4.243,-4.2344,-4.2363,-4.2433,-4.2431,-4.255,-4.2414,-4.251,-4.2514,-4.2507,-4.2793,-4.2847,-4.3059,-4.2695,-4.27,-4.2703,0,-4.2181,-4.2227,-4.24,-4.2416,-4.2445,-4.2522,-4.2576,-4.2636,-4.2665,-4.2655,-4.2692,-4.2646,-4.2745,-4.2637,-4.2774,-4.2682,-4.2719,-4.2724,-4.2731,-4.2741,-4.2622,-4.2814,-4.3125,-4.3159,-4.2748,-4.2744,-4.2741,0,-4.2391,-4.2495,-4.2613,-4.2633,-4.2653,-4.271,-4.2721,-4.2744,-4.2783,-4.283,-4.2856,-4.2914,-4.2947,-4.2994,-4.2966,-4.2889,-4.3109,-4.2998,-4.3106,-4.3107,-4.3158,-4.3156,-4.3483,-4.3177,-4.3177,-4.3176,-4.3176,0,-4.2639,-4.2748,-4.2707,-4.278,-4.2901,-4.2856,-4.2978,-4.298,-4.3001,-4.3074,-4.3009,-4.3079,-4.3037,-4.3104,-4.3083,-4.3201,-4.3216,-4.3213,-4.3207,-4.3221,-4.3221,-4.3246,-4.3232,-4.3185,-4.3183,-4.3181,-4.318,0,-4.2894,-4.287,-4.2994,-4.3002,-4.3007,-4.3097,-4.3105,-4.3173,-4.3162,-4.3256,-4.3275,-4.3259,-4.3335,-4.3311,-4.3393,-4.3379,-4.353,-4.3503,-4.352,-4.3515,-4.3625,-4.3617,-4.3983,-4.403,-4.3691,-4.3694,-4.3697,0,-4.3055,-4.3138,-4.3155,-4.3199,-4.3215,-4.3286,-4.3326,-4.3285,-4.333,-4.3369,-4.3434,-4.3504,-4.3558,-4.3684,-4.368,-4.3743,-4.3719,-4.3843,-4.3729,-4.3741,-4.3725,-4.3722,-4.3731,-4.3867,-4.3871,-4.3874,-4.3877,0,-4.3345,-4.3329,-4.3388,-4.3445,-4.3494,-4.3536,-4.3572,-4.3612,-4.3574,-4.3628,-4.3704,-4.3746,-4.383,-4.3902,-4.3959,-4.3972,-4.3921,-4.3913,-4.3942,-4.3958,-4.3966,-4.3966,-4.3586,-4.3905,-4.3902,-4.39,-4.3899,-4.3898,-4.356,-4.363,-4.3654,-4.3723,-4.3746,-4.3782,-4.3847,-4.3844,-4.3907,-4.3971,-4.3943,-4.4033,-4.406,-4.4132,-4.4153,-4.4223,-4.4176,-4.4217,-4.4228,-4.424,-4.4255,-4.3952,-4.4233,-4.4232,-4.4231,-4.4231,-4.423,0,-4.3849,-4.386,-4.3924,-4.3977,-4.4032,-4.3975,-4.4013,-4.4063,-4.4142,-4.4171,-4.4226,-4.4315,-4.4384,-4.4386,-4.4451,-4.4507,-4.4485,-4.4526,-4.4523,-4.4528,-4.4292,-4.4262,-4.4543,-4.4543,-4.4543,-4.4543,-4.4543,-4.4543,-4.4006,-4.4123,-4.411,-4.4239,-4.4249,-4.4335,-4.4362,-4.4396,-4.4419,-4.4521,-4.4578,-4.4578,-4.4598,-4.4664,-4.4725,-4.4724,-4.4753,-4.4803,-4.4794,-4.4575,-4.4544,-4.4514,-4.4486,-4.4809,-4.4809,-4.5024,-4.5026,-4.5027]},{"header":{"parameterUnit":"m.s-1","parameterCategory":1,"la1":30.2991,"la2":30.254,"lo1":-89.0895,"lo2":-89.0444,"dy":0.0017,"dx":0.0017,"nx":28,"ny":28,"refTime":"2025-12-16T03:00:00:Z","depth":0,"parameterNumber":3,"parameterNumberName":"V-component_of_WINDS"},"data":[0,0,0,0,0,0,0,0,0,0,0,0,0,0,0,0,0,0,0,0,0,0,0,0,0,0,0,0,0,0,0,0,0,0,0,0,0,0,0,0,0,0,0,0,0,0,0,0,0,0,0,0,0,0,0,0,0,0,-2.3222,-2.3221,0,-2.3144,-2.3143,-2.3143,-2.3063,-2.3062,-2.3061,-2.3059,-2.2978,-2.2977,-2.2976,0,0,0,0,0,0,0,0,0,0,0,0,0,-2.3298,-2.3297,-2.3222,-2.3221,-2.322,-2.3145,-2.3143,-2.3142,-2.3063,-2.3062,-2.306,-2.3059,-2.2979,-2.2977,-2.2976,0,0,0,0,0,0,0,0,0,0,0,0,0,-2.3247,-2.3297,-2.3222,-2.3171,-2.3166,-2.3145,-2.3143,-2.3142,-2.3063,-2.3062,-2.306,-2.3058,-2.2979,-2.2977,-2.2976,-2.2998,0,0,-2.297,-2.297,0,0,0,0,0,0,0,0,-2.325,-2.3244,-2.318,-2.3175,-2.3169,-2.3112,-2.314,-2.3094,-2.3064,-2.3102,-2.3059,-2.3058,-2.3024,-2.3018,-2.3007,-2.2994,-2.299,-2.297,-2.2969,-2.2968,-2.2968,0,0,0,0,0,0,0,-2.3254,-2.3247,-2.3191,-2.3179,-2.3172,-2.3151,-2.3142,-2.3131,-2.3073,-2.3099,-2.3093,-2.3085,-2.302,-2.3009,-2.3005,-2.2989,-2.297,-2.2969,-2.2968,-2.2967,-2.2989,-2.299,0,0,0,0,0,0,-2.3265,-2.3251,-2.3193,-2.3189,-2.3206,-2.3151,-2.3141,-2.3131,-2.3073,-2.3062,-2.3086,-2.3081,-2.3013,-2.3007,-2.3002,-2.3023,-2.2968,-2.2967,-2.2966,-2.2987,-2.2989,-2.2991,0,0,0,0,0,0,-2.3267,-2.3261,-2.3197,-2.3218,-2.3208,-2.3152,-2.3141,-2.3131,-2.3119,-2.3064,-2.3052,-2.3086,-2.3011,-2.3004,-2.2999,-2.3019,-2.2966,-2.2965,-2.2985,-2.2988,-2.299,-2.3066,0,0,0,0,0,0,-2.327,-2.3262,-2.3271,-2.3219,-2.3208,-2.3197,-2.3143,-2.313,-2.3117,-2.311,-2.306,-2.305,-2.301,-2.3002,-2.2997,-2.3015,-2.2963,-2.2983,-2.2986,-2.2989,-2.3061,-2.3071,-2.3078,0,0,0,0,0,-2.3273,-2.3295,-2.3272,-2.3265,-2.3217,-2.3198,-2.3191,-2.3145,-2.3119,-2.3126,-2.309,-2.3052,-2.3018,-2.3002,-2.2996,-2.3014,-2.2982,-2.2985,-2.2989,-2.3057,-2.3069,-2.3078,0,0,0,0,0,0,-2.335,-2.3287,-2.3261,-2.3267,-2.3239,-2.3185,-2.3193,-2.3158,-2.3136,-2.313,-2.3073,-2.3062,-2.3064,-2.3038,-2.3022,-2.3032,-2.2994,-2.2997,-2.3048,-2.3058,-2.3067,-2.3073,-2.2962,0,0,0,0,0,-2.3368,-2.3359,-2.3304,-2.3315,-2.3302,-2.325,-2.324,-2.3206,-2.3174,-2.3161,-2.3125,-2.3095,-2.3077,-2.3066,-2.3047,-2.3057,-2.3045,-2.3066,-2.3075,-2.3082,-2.3085,-2.3087,-2.3096,-2.3003,-2.3003,-2.3002,0,0,-2.3405,-2.3369,-2.3367,-2.3329,-2.3303,-2.3294,-2.324,-2.3233,-2.3224,-2.316,-2.3153,-2.3125,-2.3087,-2.309,-2.3089,-2.3069,-2.3108,-2.3087,-2.3093,-2.3092,-2.3092,-2.3101,-2.3109,-2.3005,-2.3005,-2.3004,0,0,-2.3467,-2.3439,-2.3445,-2.342,-2.3381,-2.3346,-2.3348,-2.3299,-2.3278,-2.327,-2.3221,-2.3211,-2.3182,-2.3156,-2.314,-2.3191,-2.3154,-2.3186,-2.3231,-2.3234,-2.3241,-2.3247,-2.3265,-2.3272,-2.3189,-2.3189,-2.319,0,-2.3517,-2.3501,-2.3452,-2.3447,-2.3431,-2.3373,-2.3377,-2.3355,-2.3312,-2.3302,-2.328,-2.3242,-2.3212,-2.3208,-2.322,-2.3209,-2.3208,-2.3192,-2.3244,-2.325,-2.3255,-2.3271,-2.3278,-2.3194,-2.3193,-2.3193,-2.3192,0,-2.3564,-2.3554,-2.3563,-2.3523,-2.3509,-2.3509,-2.3458,-2.3449,-2.3417,-2.3385,-2.3377,-2.3339,-2.3311,-2.3307,-2.3275,-2.3298,-2.3286,-2.3255,-2.3216,-2.3269,-2.3283,-2.3289,-2.3199,-2.3198,-2.3197,-2.3196,0,0,-2.3673,-2.3606,-2.361,-2.359,-2.3543,-2.3534,-2.3531,-2.3503,-2.3496,-2.3468,-2.3463,-2.344,-2.341,-2.3392,-2.3356,-2.3359,-2.3401,-2.3327,-2.3325,-2.3342,-2.3422,-2.3445,-2.3453,-2.3377,-2.3377,-2.3378,-2.3425,0,-2.3726,-2.3717,-2.3672,-2.3677,-2.3666,-2.361,-2.3607,-2.3577,-2.3546,-2.3532,-2.3497,-2.3481,-2.3444,-2.3432,-2.3433,-2.3396,-2.3416,-2.3392,-2.337,-2.337,-2.3381,-2.3461,-2.3485,-2.3531,-2.343,-2.3431,-2.3432,0,-2.3787,-2.3763,-2.3766,-2.3718,-2.3712,-2.3711,-2.3681,-2.3669,-2.3633,-2.361,-2.3589,-2.355,-2.3542,-2.3506,-2.3493,-2.3478,-2.3466,-2.3447,-2.3447,-2.3443,-2.3404,-2.3458,-2.3545,-2.3551,-2.344,-2.3439,-2.3439,0,-2.3865,-2.3833,-2.3831,-2.3816,-2.3761,-2.3761,-2.3737,-2.37,-2.3686,-2.366,-2.365,-2.3624,-2.3609,-2.3589,-2.3543,-2.3521,-2.3536,-2.3496,-2.3515,-2.3517,-2.3521,-2.3521,-2.3606,-2.3515,-2.3515,-2.3514,-2.3514,0,-2.3928,-2.3932,-2.3865,-2.3864,-2.3866,-2.3814,-2.3817,-2.3788,-2.3756,-2.3747,-2.3697,-2.3689,-2.3629,-2.3614,-2.3578,-2.3573,-2.3567,-2.3547,-2.3537,-2.3551,-2.3554,-2.3543,-2.3538,-2.3516,-2.3516,-2.3515,-2.3515,0,-2.4016,-2.3971,-2.3965,-2.3912,-2.3899,-2.3903,-2.3858,-2.3854,-2.382,-2.3809,-2.3803,-2.375,-2.373,-2.3682,-2.3649,-2.3625,-2.3628,-2.3611,-2.3641,-2.3634,-2.3656,-2.3655,-2.3737,-2.3745,-2.3649,-2.365,-2.3651,0,-2.4059,-2.4061,-2.4009,-2.3999,-2.3978,-2.3964,-2.395,-2.3898,-2.3885,-2.3844,-2.3845,-2.3821,-2.3799,-2.3769,-2.3727,-2.3701,-2.3682,-2.3712,-2.3678,-2.3691,-2.3681,-2.3681,-2.3681,-2.372,-2.3721,-2.3722,-2.3723,0,-2.414,-2.4118,-2.41,-2.4073,-2.4058,-2.4034,-2.4008,-2.4003,-2.3945,-2.3932,-2.3911,-2.3895,-2.3861,-2.3837,-2.3805,-2.3779,-2.3741,-2.3735,-2.3738,-2.3752,-2.3769,-2.3759,-2.3661,-2.3733,-2.3732,-2.3731,-2.3731,-2.373,-2.4206,-2.4205,-2.4168,-2.4149,-2.4124,-2.41,-2.4093,-2.4059,-2.4041,-2.401,-2.398,-2.3962,-2.3925,-2.3878,-2.3855,-2.3839,-2.382,-2.3824,-2.3825,-2.3827,-2.3833,-2.3772,-2.3833,-2.3833,-2.3832,-2.3832,-2.3832,0,-2.4284,-2.4257,-2.424,-2.4205,-2.419,-2.4156,-2.4125,-2.4114,-2.41,-2.4069,-2.4048,-2.4024,-2.4,-2.3956,-2.3928,-2.3924,-2.3906,-2.3919,-2.3918,-2.3913,-2.3852,-2.3852,-2.3934,-2.3934,-2.3934,-2.3934,-2.3934,-2.3934,-2.4323,-2.4318,-2.4292,-2.4274,-2.4247,-2.4229,-2.4214,-2.4192,-2.4167,-2.4142,-2.4123,-2.4094,-2.4057,-2.4027,-2.4003,-2.3991,-2.3982,-2.4001,-2.3983,-2.3927,-2.3917,-2.3908,-2.3907,-2.4,-2.4,-2.4044,-2.4044,-2.4045]}]]